DW4719 Vilanova I la Geltru ES current weather conditions

sailwx.info

Wind from 017

Air temperature 13.9° C
Dewpoint 7.9° C

Last reported at 2015-May-23 03:51 UTC.
Time now 2015-May-23 04:19 UTC

Location: N 41°13' E 001°44'.
View on Google Maps.

See reports from other nearby stations

  
Tides and Currents Weather Stations Pressure Air Temp Water Temp Dewpoint Dewpoint Depression Visibility Wind Speed Wind Dir Waves Ship Positions
date/time (UTC)wind fromknots sea level pressurealtimeterstation pressurevisibilityair tempwater tempwave heightnotes
2015-May-23 03:51 017 13.9
2015-May-23 03:46 017 13.9
2015-May-23 03:41 016 13.9
2015-May-23 03:36 028 13.9
2015-May-23 03:31 051 13.9
2015-May-23 03:26 051 13.9
2015-May-23 03:21 073 13.9
2015-May-23 03:16 073 13.9
2015-May-23 03:11 073 13.9
2015-May-23 03:06 073 13.3
2015-May-23 03:01 073 13.3
2015-May-23 02:55 073 12.8
2015-May-23 02:51 073 12.8
2015-May-23 02:46 073 13.3
2015-May-23 02:41 073 12.8
2015-May-23 02:35 073 12.8
2015-May-23 02:31 073 12.8
2015-May-23 02:26 073 12.8
2015-May-23 02:21 073 12.8
2015-May-23 02:16 073 13.3
2015-May-23 02:11 073 13.3
2015-May-23 02:05 073 13.3
2015-May-23 02:01 073 13.3
2015-May-23 01:56 073 13.3
2015-May-23 01:51 073 13.3
2015-May-23 01:46 073 13.3
2015-May-23 01:41 073 13.3
2015-May-23 01:36 073 13.3
2015-May-23 01:31 073 13.3
2015-May-23 01:26 073 13.3
2015-May-23 01:21 073 13.3
2015-May-23 01:16 073 13.3
2015-May-23 01:11 073 13.3
2015-May-23 01:05 073 13.9
2015-May-23 01:01 073 13.9
2015-May-23 00:56 073 13.9
2015-May-23 00:51 073 13.9
2015-May-23 00:46 073 13.9
2015-May-23 00:41 073 13.9
2015-May-23 00:36 073 13.9
2015-May-23 00:31 073 13.9
2015-May-23 00:26 073 13.9
2015-May-23 00:21 073 13.9
2015-May-23 00:16 073 13.9
2015-May-23 00:11 073 13.9
2015-May-23 00:05 083 14.4
2015-May-23 00:01 083 14.4
2015-May-22 23:56 083 14.4
2015-May-22 23:51 083 14.4
2015-May-22 23:46 083 14.4
2015-May-22 23:41 083 14.4
2015-May-22 23:36 083 14.4
2015-May-22 23:31 083 14.4
2015-May-22 23:25 083 14.4
2015-May-22 23:21 083 14.4
2015-May-22 23:16 083 14.4
2015-May-22 23:11 083 14.4
2015-May-22 23:06 083 14.4
2015-May-22 23:01 205 15.0
2015-May-22 22:56 200 15.0
2015-May-22 22:51 200 15.0
2015-May-22 22:46 198 15.6
2015-May-22 22:41 198 15.6
2015-May-22 22:36 198 15.6
2015-May-22 22:31 198 15.6
2015-May-22 22:26 198 15.6
2015-May-22 22:21 198 15.6
2015-May-22 22:16 198 15.6
2015-May-22 22:11 198 16.1
2015-May-22 22:06 198 16.7
2015-May-22 22:01 196 16.7
2015-May-22 21:55 196 17.2
2015-May-22 21:51 196 17.2
2015-May-22 21:46 196 17.2
2015-May-22 21:41 196 17.2
2015-May-22 21:36 196 17.2
2015-May-22 21:31 196 17.2
2015-May-22 21:26 196 17.2
2015-May-22 21:21 198 17.2
2015-May-22 21:16 198 17.2
2015-May-22 21:11 198 17.2
2015-May-22 21:06 198 17.2
2015-May-22 21:01 198 17.2
2015-May-22 20:56 202 17.2
2015-May-22 20:51 202 17.2
2015-May-22 20:46 182 17.2
2015-May-22 20:41 199 17.2
2015-May-22 20:36 196 17.2
2015-May-22 20:31 196 17.8
2015-May-22 20:25 192 17.8
2015-May-22 20:21 226 17.8
2015-May-22 20:16 193 17.8
2015-May-22 20:11 195 17.8
2015-May-22 20:06 195 17.8
2015-May-22 20:01 219 17.8
2015-May-22 19:56 219 17.8
2015-May-22 19:51 219 17.8
2015-May-22 19:46 224 17.8
2015-May-22 19:41 200 17.8
2015-May-22 19:36 234 17.8
2015-May-22 19:31 236 17.8
2015-May-22 19:26 224 17.8
2015-May-22 19:21 202 17.8
2015-May-22 19:16 205 17.8
2015-May-22 19:10 202 17.8
2015-May-22 19:06 219 17.8
2015-May-22 19:01 216 17.8
2015-May-22 18:56 216 17.8
2015-May-22 18:51 237 17.8
2015-May-22 18:46 222 17.8
2015-May-22 18:41 215 0 17.8
2015-May-22 18:36 244 18.3
2015-May-22 18:31 200 18.3
2015-May-22 18:26 243 18.3
2015-May-22 18:21 224 0 18.3
2015-May-22 18:16 226 1 18.3
2015-May-22 18:11 189 0 18.9
2015-May-22 18:06 256 1 18.3
2015-May-22 18:01 250 4 18.3
2015-May-22 17:56 208 3 18.9
2015-May-22 17:51 232 2 18.9
2015-May-22 17:46 248 2 18.9
2015-May-22 17:41 219 0 18.9
2015-May-22 17:36 251 1 19.4
2015-May-22 17:31 234 2 19.4
2015-May-22 17:25 230 3 19.4
2015-May-22 17:21 251 2 19.4
2015-May-22 17:16 241 2 19.4
2015-May-22 17:11 240 3 19.4
2015-May-22 17:06 237 2 19.4
2015-May-22 17:01 226 1 19.4
2015-May-22 16:56 226 1 19.4
2015-May-22 16:51 234 1 19.4
2015-May-22 16:46 213 0 20.0
2015-May-22 16:41 240 1 19.4
2015-May-22 16:36 213 0 20.0
2015-May-22 16:31 222 1 20.0
2015-May-22 16:26 257 1 20.6
2015-May-22 16:21 203 0 20.6
2015-May-22 16:16 223 1 20.6
2015-May-22 16:11 179 1 20.0
2015-May-22 16:06 198 1 20.6
2015-May-22 16:01 219 3 20.0
2015-May-22 15:56 193 3 20.0
2015-May-22 15:51 202 2 20.0
2015-May-22 15:45 186 3 20.0
2015-May-22 15:41 222 6 19.4
2015-May-22 15:36 192 6 19.4
2015-May-22 15:31 165 6 19.4
2015-May-22 15:25 164 5 19.4
2015-May-22 15:21 181 5 20.0
2015-May-22 15:16 203 4 20.0
2015-May-22 15:11 241 3 20.0
2015-May-22 15:06 253 3 20.0
2015-May-22 15:01 206 4 20.0
2015-May-22 14:56 182 4 20.0
2015-May-22 14:51 184 3 20.0
2015-May-22 14:46 162 4 20.0
2015-May-22 14:41 192 3 20.0
2015-May-22 14:36 161 2 20.6
2015-May-22 14:31 227 2 20.6
2015-May-22 14:26 202 1 21.1
2015-May-22 14:21 151 0 21.1
2015-May-22 14:16 169 1 21.1
2015-May-22 14:11 193 4 20.0
2015-May-22 14:06 162 5 19.4
2015-May-22 14:01 198 5 20.0
2015-May-22 13:56 158 5 20.0
2015-May-22 13:51 195 4 20.6
2015-May-22 13:46 171 2 20.6
2015-May-22 13:40 199 2 20.6
2015-May-22 13:36 174 4 20.0
2015-May-22 13:31 186 3 20.0
2015-May-22 13:26 157 4 20.0
2015-May-22 13:21 209 5 20.0
2015-May-22 13:16 185 3 20.0
2015-May-22 13:11 243 4 20.0
2015-May-22 13:06 213 4 20.0
2015-May-22 13:01 184 3 20.0
2015-May-22 12:56 176 4 20.0
2015-May-22 12:51 184 3 20.0
2015-May-22 12:35 193 2 20.0
2015-May-22 12:31 253 3 20.0
2015-May-22 12:26 209 2 20.0
2015-May-22 12:21 203 3 20.0
2015-May-22 12:16 257 2 20.0
2015-May-22 12:11 150 0 20.6
2015-May-22 12:06 182 1 20.6
2015-May-22 12:01 182 2 20.6
2015-May-22 11:56 154 2 20.6
2015-May-22 11:51 217 4 20.0
2015-May-22 11:46 181 4 20.0
2015-May-22 11:41 188 4 20.0
2015-May-22 11:36 209 5 20.0
2015-May-22 11:31 162 5 20.0
2015-May-22 11:26 208 6 20.0
2015-May-22 11:20 185 6 19.4
2015-May-22 11:16 176 4 20.0
2015-May-22 11:11 178 3 20.0
2015-May-22 11:06 188 4 20.0
2015-May-22 11:01 196 5 20.0
2015-May-22 10:56 168 5 20.0
2015-May-22 10:51 192 4 20.0
2015-May-22 10:46 185 4 20.0
2015-May-22 10:41 137 4 20.0
2015-May-22 10:36 186 4 20.0
2015-May-22 10:31 134 4 20.0
2015-May-22 10:26 121 3 20.0
2015-May-22 10:21 179 4 20.0
2015-May-22 10:16 155 3 20.0
2015-May-22 10:11 175 3 20.0
2015-May-22 10:06 144 5 20.0
2015-May-22 10:01 168 5 20.0
2015-May-22 09:56 151 4 20.0
2015-May-22 09:51 144 3 20.0
2015-May-22 09:45 143 3 20.0
2015-May-22 09:41 152 4 20.0
2015-May-22 09:36 113 4 20.0
2015-May-22 09:31 154 1 20.0
2015-May-22 09:26 155 0 20.6
2015-May-22 09:21 131 20.6
2015-May-22 09:16 133 20.6
2015-May-22 09:11 141 20.6
2015-May-22 09:06 147 20.6
2015-May-22 09:01 162 20.0
2015-May-22 08:56 192 19.4
2015-May-22 08:51 042 20.0
2015-May-22 08:46 042 20.0
2015-May-22 08:41 328 20.0
2015-May-22 08:35 326 20.0
2015-May-22 08:31 325 19.4
2015-May-22 08:26 308 19.4
2015-May-22 08:21 360 0 18.9
2015-May-22 08:16 337 0 18.9
2015-May-22 08:11 356 0 18.9
2015-May-22 08:06 349 0 18.9
2015-May-22 08:01 360 18.9
2015-May-22 07:56 275 0 18.9
2015-May-22 07:51 336 18.9
2015-May-22 07:46 079 18.9
2015-May-22 07:41 011 0 18.3
2015-May-22 07:36 018 0 18.3
2015-May-22 07:31 347 0 18.3
2015-May-22 07:26 076 0 17.8
2015-May-22 07:21 340 0 17.8
2015-May-22 07:16 328 17.8
2015-May-22 07:11 097 17.8
2015-May-22 07:06 347 17.2
2015-May-22 07:01 360 0 17.2
2015-May-22 06:56 335 0 17.2
2015-May-22 06:51 134 16.7
2015-May-22 06:46 208 16.7
2015-May-22 06:41 003 16.1
2015-May-22 06:36 071 0 16.1
2015-May-22 06:31 068 0 16.1
2015-May-22 06:26 054 15.6
2015-May-22 06:21 056 15.6
2015-May-22 06:16 059 15.6
2015-May-22 06:11 323 15.6
2015-May-22 06:06 006 15.0
2015-May-22 06:01 001 15.0
2015-May-22 05:56 014 15.0
2015-May-22 05:50 360 14.4
2015-May-22 05:45 360 14.4
2015-May-22 05:41 054 14.4
2015-May-22 05:36 056 14.4
2015-May-22 05:31 071 14.4
2015-May-22 05:26 054 14.4
2015-May-22 05:21 052 13.9
2015-May-22 05:16 062 13.9
2015-May-22 05:11 075 13.9
2015-May-22 05:06 075 13.9
2015-May-22 05:01 075 13.9
2015-May-22 04:56 075 13.9
2015-May-22 04:51 076 13.3
2015-May-22 04:46 100 13.3
2015-May-22 04:41 093 13.3
2015-May-22 04:36 085 13.3
2015-May-22 04:31 080 13.3
2015-May-22 04:26 061 13.9
2015-May-22 04:21 065 13.9
2015-May-22 04:16 065 13.9
2015-May-22 04:11 065 13.9
2015-May-22 04:06 062 13.9
2015-May-22 04:01 056 13.9
2015-May-22 03:56 049 13.9
2015-May-22 03:51 049 13.9
2015-May-22 03:46 049 13.9
2015-May-22 03:41 049 13.9
2015-May-22 03:36 048 13.9
2015-May-22 03:31 048 13.9
2015-May-22 03:26 047 13.9
2015-May-22 03:21 047 13.9
2015-May-22 03:15 047 13.9
2015-May-22 03:11 047 13.9
2015-May-22 03:06 047 13.9
2015-May-22 03:01 047 13.9
2015-May-22 02:56 047 14.4
2015-May-22 02:51 047 14.4
2015-May-22 02:46 048 14.4
2015-May-22 02:41 065 14.4
2015-May-22 02:36 064 14.4
2015-May-22 02:31 065 14.4
2015-May-22 02:26 040 14.4
2015-May-22 02:21 045 14.4
2015-May-22 02:16 024 14.4
2015-May-22 02:11 001 14.4
2015-May-22 02:06 346 14.4
2015-May-22 02:01 330 14.4
2015-May-22 01:56 326 14.4
2015-May-22 01:51 318 14.4
2015-May-22 01:46 313 14.4
2015-May-22 01:41 021 14.4
2015-May-22 01:36 021 14.4
2015-May-22 01:31 021 14.4
2015-May-22 01:26 021 14.4
2015-May-22 01:21 020 14.4
2015-May-22 01:16 020 15.0
2015-May-22 01:11 018 15.0
2015-May-22 01:04 027 15.0
2015-May-22 01:01 027 15.0
2015-May-22 00:56 064 15.6
2015-May-22 00:51 064 15.6
2015-May-22 00:46 064 15.6
2015-May-22 00:41 064 15.6
2015-May-22 00:36 064 15.6
2015-May-22 00:31 064 15.6
2015-May-22 00:26 064 15.6
2015-May-22 00:21 064 15.6
2015-May-22 00:16 064 15.6
2015-May-22 00:11 061 15.6
2015-May-22 00:06 061 15.6
2015-May-22 00:01 062 15.6
2015-May-21 23:56 061 15.6
2015-May-21 23:51 061 15.6
2015-May-21 23:46 061 15.6
2015-May-21 23:41 061 15.6
2015-May-21 23:36 061 15.6
2015-May-21 23:31 059 15.6
2015-May-21 23:26 058 15.6
2015-May-21 23:21 058 15.6
2015-May-21 23:16 061 15.6
2015-May-21 23:11 059 15.6
2015-May-21 23:06 061 15.6
2015-May-21 23:01 061 15.6
2015-May-21 22:56 059 15.6
2015-May-21 22:51 061 15.6
2015-May-21 22:46 064 15.6
2015-May-21 22:41 054 15.6
2015-May-21 22:36 069 15.6
2015-May-21 22:31 071 15.6
2015-May-21 22:26 061 15.6
2015-May-21 22:21 065 15.6
2015-May-21 22:16 066 15.6
2015-May-21 22:11 056 15.6
2015-May-21 22:06 051 15.6
2015-May-21 22:01 069 15.6
2015-May-21 21:56 066 15.6
2015-May-21 21:51 064 15.6
2015-May-21 21:46 064 15.6
2015-May-21 21:41 065 15.6
2015-May-21 21:36 064 15.6
2015-May-21 21:30 062 15.6
2015-May-21 21:26 058 15.6
2015-May-21 21:21 059 15.6
2015-May-21 21:16 058 15.6
2015-May-21 21:11 064 15.6
2015-May-21 21:06 059 15.6
2015-May-21 21:01 059 16.1
2015-May-21 20:56 027 16.1
2015-May-21 20:51 342 16.1
2015-May-21 20:46 340 16.7
2015-May-21 20:40 339 16.7
2015-May-21 20:36 339 16.7
2015-May-21 20:31 339 16.7
2015-May-21 20:26 339 16.7
2015-May-21 20:21 339 16.7
2015-May-21 20:16 339 16.7
2015-May-21 20:11 339 17.2
2015-May-21 20:06 339 17.2
2015-May-21 20:01 337 17.2
2015-May-21 19:56 337 17.2
2015-May-21 19:51 337 17.2
2015-May-21 19:46 337 17.2
2015-May-21 19:41 337 0 17.2
2015-May-21 19:36 268 0 17.2
2015-May-21 19:31 270 17.2
2015-May-21 19:26 275 0 17.2
2015-May-21 19:20 287 0 17.2
2015-May-21 19:16 287 17.2
2015-May-21 19:11 248 0 17.8
2015-May-21 19:06 280 2 17.8
2015-May-21 19:01 271 4 17.8
2015-May-21 18:56 281 5 17.8
2015-May-21 18:51 260 6 17.8
2015-May-21 18:46 224 7 17.8
2015-May-21 18:41 241 8 17.8
2015-May-21 18:36 257 6 17.8
2015-May-21 18:31 281 6 17.8
2015-May-21 18:26 244 6 17.8
2015-May-21 18:21 220 8 17.8
2015-May-21 18:16 272 7 17.8
2015-May-21 18:08 246 7 18.3
2015-May-21 18:04 229 7 18.3
2015-May-21 18:01 227 6 18.3
2015-May-21 17:56 274 6 18.3
2015-May-21 17:51 254 6 18.3
2015-May-21 17:46 215 6 18.3
2015-May-21 17:41 264 5 18.3
2015-May-21 17:36 172 6 18.3
2015-May-21 17:31 247 7 18.3
2015-May-21 17:26 234 6 18.3
2015-May-21 17:21 241 5 18.9
2015-May-21 17:16 261 5 18.9
2015-May-21 17:11 237 6 18.9
2015-May-21 17:05 265 6 18.3
2015-May-21 17:01 222 6 18.9
2015-May-21 16:56 241 6 18.9
2015-May-21 16:51 246 6 18.9
2015-May-21 16:46 234 7 18.9
2015-May-21 16:41 254 8 18.9
2015-May-21 16:36 263 7 18.9
2015-May-21 16:31 230 7 18.9
2015-May-21 16:26 250 7 18.9
2015-May-21 16:21 222 7 19.4
2015-May-21 16:16 237 7 18.9
2015-May-21 16:11 247 7 18.9
2015-May-21 16:06 213 7 18.9
2015-May-21 16:01 302 6 19.4
2015-May-21 15:56 244 6 19.4
2015-May-21 15:51 241 6 19.4
2015-May-21 15:46 212 7 18.9
2015-May-21 15:41 222 8 18.9
2015-May-21 15:36 265 8 18.9
2015-May-21 15:31 192 6 19.4
2015-May-21 15:26 210 6 19.4
2015-May-21 15:21 169 6 19.4
2015-May-21 15:16 263 6 19.4
2015-May-21 15:11 192 6 19.4
2015-May-21 15:05 199 6 19.4
2015-May-21 15:01 270 5 19.4
2015-May-21 14:56 208 6 19.4
2015-May-21 14:51 232 6 19.4
2015-May-21 14:46 222 7 19.4
2015-May-21 14:41 217 7 19.4
2015-May-21 14:36 223 6 19.4
2015-May-21 14:31 210 6 20.0
2015-May-21 14:26 175 6 19.4
2015-May-21 14:21 119 6 19.4
2015-May-21 14:16 210 6 19.4
2015-May-21 14:11 256 7 19.4
2015-May-21 14:05 226 8 19.4
2015-May-21 14:01 243 7 19.4
2015-May-21 13:55 192 7 19.4
2015-May-21 13:51 189 7 20.0
2015-May-21 13:46 199 7 19.4
2015-May-21 13:41 268 7 20.0
2015-May-21 13:36 233 7 20.0
2015-May-21 13:31 248 7 20.0
2015-May-21 13:26 270 7 20.0
2015-May-21 13:21 215 7 20.0
2015-May-21 13:16 195 7 19.4
2015-May-21 13:11 217 8 20.0
2015-May-21 13:05 248 8 19.4
2015-May-21 13:01 229 8 19.4
2015-May-21 12:56 233 8 19.4
2015-May-21 12:51 219 7 19.4
2015-May-21 12:46 248 8 19.4
2015-May-21 12:41 196 8 19.4
2015-May-21 12:36 271 8 19.4
2015-May-21 12:31 237 7 19.4
2015-May-21 12:26 237 6 20.0
2015-May-21 12:21 263 7 19.4
2015-May-21 12:16 284 8 19.4
2015-May-21 12:11 234 9 19.4
2015-May-21 12:05 192 6 19.4
2015-May-21 12:01 168 6 20.0
2015-May-21 11:56 240 6 19.4
2015-May-21 11:51 240 6 19.4
2015-May-21 11:46 222 6 19.4
2015-May-21 11:41 258 4 19.4
2015-May-21 11:36 229 4 19.4
2015-May-21 11:31 227 4 19.4
2015-May-21 11:26 210 4 19.4
2015-May-21 11:21 248 5 18.9
2015-May-21 11:16 287 6 18.3
2015-May-21 11:10 237 4 18.9
2015-May-21 11:05 213 5 18.9
2015-May-21 11:01 215 6 18.3
2015-May-21 10:56 230 5 18.3
2015-May-21 10:51 243 4 18.9
2015-May-21 10:46 254 3 18.9
2015-May-21 10:41 233 2 18.9
2015-May-21 10:36 248 3 18.9
2015-May-21 10:31 210 4 17.8
2015-May-21 10:26 206 4 17.8
2015-May-21 10:21 237 4 17.8
2015-May-21 10:16 223 3 17.8
2015-May-21 10:11 215 3 18.3
2015-May-21 10:06 219 2 17.8
2015-May-21 10:01 233 2 18.3
2015-May-21 09:55 233 2 18.3
2015-May-21 09:51 210 1 18.3
2015-May-21 09:46 237 2 17.8
2015-May-21 09:41 222 1 17.8
2015-May-21 09:36 199 2 17.8
2015-May-21 09:31 200 2 17.8
2015-May-21 09:26 198 2 17.8
2015-May-21 09:21 230 3 17.2
2015-May-21 09:16 216 2 17.2
2015-May-21 09:11 226 1 17.2
2015-May-21 09:05 203 1 17.2
2015-May-21 09:01 195 1 17.2
2015-May-21 08:56 215 1 17.2
2015-May-21 08:51 200 1 17.2
2015-May-21 08:46 210 0 17.2
2015-May-21 08:41 199 0 17.2
2015-May-21 08:36 227 0 17.2
2015-May-21 08:31 226 0 16.7
2015-May-21 08:26 212 0 17.2
2015-May-21 08:21 188 0 17.2
2015-May-21 08:16 208 17.2
2015-May-21 08:11 191 17.2
2015-May-21 08:05 199 17.2
2015-May-21 08:01 200 0 17.2
2015-May-21 07:56 191 0 16.7
2015-May-21 07:51 191 16.7
2015-May-21 07:46 208 16.7
2015-May-21 07:41 206 16.7
2015-May-21 07:36 071 16.7
2015-May-21 07:31 064 16.7
2015-May-21 07:26 064 16.7
2015-May-21 07:21 064 16.7
2015-May-21 07:16 064 16.1
2015-May-21 07:11 064 16.1
2015-May-21 07:05 068 16.1
2015-May-21 07:01 068 15.6
2015-May-21 06:56 068 15.0
2015-May-21 06:51 069 15.0
2015-May-21 06:46 069 15.0
2015-May-21 06:41 069 15.0
2015-May-21 06:36 069 15.0
2015-May-21 06:31 069 15.0
2015-May-21 06:26 069 15.0
2015-May-21 06:21 069 14.4
2015-May-21 06:16 068 14.4
2015-May-21 06:11 069 14.4
2015-May-21 06:05 069 14.4
2015-May-21 06:01 069 14.4
2015-May-21 05:56 069 14.4
2015-May-21 05:51 069 13.9
2015-May-21 05:46 069 13.9
2015-May-21 05:41 069 13.9
2015-May-21 05:36 068 13.9
2015-May-21 05:31 069 13.9
2015-May-21 05:26 069 13.9
2015-May-21 05:21 069 13.9
2015-May-21 05:16 069 13.3
2015-May-21 05:10 069 13.3
2015-May-21 05:06 069 13.3
2015-May-21 05:01 069 13.3
2015-May-21 04:56 069 13.3
2015-May-21 04:51 069 13.3
2015-May-21 04:46 069 13.3
2015-May-21 04:41 069 13.3
2015-May-21 04:36 069 13.3
2015-May-21 04:31 069 13.3
2015-May-21 04:26 069 13.3
2015-May-21 04:21 069 13.3
2015-May-21 04:16 069 13.3
2015-May-21 04:11 069 13.3
2015-May-21 04:06 069 13.3
2015-May-21 04:01 069 13.3